Погода в Чернушке

Погода в Чернушке : погода сейчас, прогноз погоды и архив. Всё, что Вы хотите узнать о погоде в Чернушке!

Хотите узнать прогноз погоды в Чернушке? Тогда Вам сюда: Погода в Чернушке

Поиск расширенной информации на нашем сайте:

Другие новости

Новости СМИ2

Главная страница сайта

Новости сайта

03.07.2017

Напоминаем, что на нашем специализированном сайте Метеоцентр.Азия вы можете получить высокодетализированные автоматические прогнозы погоды по пунктам России, СНГ и мира в авиационном формате (включающие направление и скорость ветра, видимость, явления погоды, количество и форму облачности, нижнюю и верхнюю границу облачности).


Погода в Чернушке - сегодня

Время (UTC), дата Ветер
(°,м/с) 
Видим.   Явления Облачность Т
(°С)
Тd
(°С)
f(%) Тe
(°С)
Pmin
(гПа)
dP
(гПа)
Po
(мм)
O2
(г/м3)
Тmin Tmax R s Состояние
почвы
06 08.08.18 330 (СЗ) 20000 м    10/6 600 м кучево-дожд., верхняя 
[Cb cap|Ci fib]
+22.4 +14.5 61 +31  1005.5  0.1  741  273           
18 08.08.18 050 (СВ) 20000 м    10/10 600 м кучево-дожд. 
[Cb cap]
+16.4 +12.4 77 +22  1005.9  0.2  741  279           
06 10.08.18 340 (С) 20000 м    3/3 600 м 
[Sc]
+16.9 +9 60 +17  1019  0.5  751  283           
12 10.08.18 320 (СЗ) 20000 м    5/3 600 м верхняя 
[Cu med, cong|Ci fib]
+21.1 +8.3 44 +21  1016.7  -1.5  750  279           
18 10.08.18 270 (З) 20000 м    8/8 2000 м средняя 
[Ac trans]
+16.1 +10.6 70 +18  1014.4  -0.8  748  283           
00 11.08.18 260 (З) 20000 м    6/6 2000 м средняя 
[Ac trans]
+13.4 +11.2 87 +17  1011.4  -1.2  745  284           
06 11.08.18 330 (СЗ) 20000 м    10/1 600 м верхняя 
[Sc|Ci fib]
+22.8 +15.4 63 +32  1010.5  745  274           
18 11.08.18 290 (З) 20000 м    9/9 600 м 
[Sc]
+18.2 +13.7 75 +27  1012.1  0.8  746  279           
06 12.08.18 250 (З) 20000 м    10/3 2000 м средняя, верхняя 
[Ac trans|Ci fib]
+23.8 +17.4 67 +37  1011.6  -0.3  746  273           
12 12.08.18 290 (З) 20000 м    4/4 600 м 
[Cu med, cong]
+27.5 +12.9 41 +33  1011.3  0.1  746  271           
18 12.08.18 тихо ()   20000 м    ясно 
+16.1 +13.5 85 +22  1012  0.6  746  281           
00 13.08.18 120 (ЮВ) 2000 м  дымка  ясно 
+11.2 +10.4 95 +14  1011.8  -0.2  746  287           
06 13.08.18 170 (Ю) 20000 м    ясно 
+24.6 +15 55 +33  1010.1  -0.8  745  272           
18 13.08.18 160 (Ю) 20000 м    3/0 верхняя 
[Ci fib]
+16.7 +13.2 80 +24  1008  743  279           
00 14.08.18 тихо ()   20000 м    10/3 600 м кучево-дожд., верхняя 
[Cb cap|Ci fib]
+14.2 +12.4 89 +19  1007.7  -0.2  743  282           
06 14.08.18 170 (Ю) 20000 м  {гроза, ливн. осадки}  10/10 600 м кучево-дожд. 
[Cb cap]
+18.3 +15.2 82 +28  1008.4  0.2  743  277           
06 15.08.18 320 (СЗ) 20000 м    3/1 600 м кучево-дожд., верхняя 
[Cb cap|Ci fib]
+19.2 +11.2 60 +23  1013.1  0.6  747  279           
12 15.08.18 310 (СЗ) 20000 м    6/6 600 м кучево-дожд. 
[Cb cap]
+20.7 +9.9 50 +22  1014.4  0.7  748  278           
18 15.08.18 200 (Ю) 20000 м    10/3 600 м верхняя 
[Sc|Ci fib]
+12.4 +10.2 86 +15  1016.3  0.7  749  287           
06 16.08.18 170 (Ю) 20000 м  {ливн. осадки}  10/10 600 м кучево-дожд. 
[Cb cap]
+15.3 +12.7 84 +20  1014.1  -2.2  747  283           
18 16.08.18 240 (ЮЗ) 20000 м    10/5 600 м кучево-дожд., верхняя 
[Cb cap|Ci fib]
+17.7 +14.6 82 +26  1009.3  -0.5  744  278           
06 17.08.18 340 (С) 20000 м    9/9 600 м кучево-дожд. 
[Cb cap]
+15.3 +9.3 67 +15  1015.8  1.3  749  284           
18 17.08.18 310 (СЗ) 20000 м    ясно 
+10 +7.1 82 +11  1018.6  0.3  750  291           
00 18.08.18 320 (СЗ) 20000 м    ясно 
+6.3 +5.4 94 +6  1019.8  0.9  751  295           
06 18.08.18 020 (С) 20000 м    9/9 600 м кучево-дожд. 
[Cb cap]
+12.5 +8.2 75 +13  1021.2  0.7  752  289           
Время (UTC), дата Ветер
(°,м/с) 
Видим.   Явления Облачность Т
(°С)
Тd
(°С)
f(%) Тe
(°С)
Pmin
(гПа)
dP
(гПа)
Po
(мм)
O2
(г/м3)
Тmin Tmax R s Состояние
почвы

Для получения пояснительной информации подведите курсор к названию столбца.

ПОГОДА в Чернушке - архив

Всё, что Вы хотите узнать о погоде в Чернушке - удобно и подробно!

Выберите нужную дату (начиная с 1 января 2015* года) и нажмите кнопку "Найти".
Будут отображены архивные сводки погоды по пункту Чернушка, начиная с указанной даты.


Отображать данные в формате CSV (для использования в таблицах Excel)


Внимание! Наш архив погоды предназначен исключительно для личного некоммерческого использования в познавательных целях. Если Вам необходимы официальные справки о состоянии погоды (для производственных, юридических, коммерческих и т.п. целей), обращайтесь в органы Росгидромета.

*Примечание: данная дата относится к архиву по метеостанциям СССР (Россия, СНГ, Балтия).
Архив по метеостанциям Зарубежной Европы и Азии (кроме Китая) хранится 10 дней, по другим регионам земного шара (Китай, Африка, Америка, Австралия, Океания) - 1 день.

Чернушка - район местоположения метеостанции


Название, широта, долгота, высота метеостанции:
Чернушка 56.5°ш. 56.1°д. 148 м над ур. моря [Российская Федерация]

Дополнительная информация

В oтличие oт бoльшинства пoгoдных сайтoв мы публикуем пoдрoбную метеoинфoрмацию в детальнoм прoфессиoнальнoм фoрмате.

Характеристики температуры и влажнoсти вoздуха измеряются на высoте 2 м в тени вдали oт зданий и деревьев.
Скoрoсть ветра измеряется на высoте 10 м (на урoвне рoста челoвека скoрoсть ветра ниже в 1.5-2 раза). Если метеoстанция нахoдится в гoрoде или в лесу, тo скoрoсть ветра занижена на 2-4 м/с пo сравнению с oткрытым местoм. Скoрoсть ветра над акватoриями крупных рек и oзёр, а также на вершинах хoлмoв на 2-5 м/с выше, чем в oбычных услoвиях.
Атмoсфернoе давление в разных тoчках местнoсти мoжет значительнo oтличаться oт давления на метеoстанции, в зависимoсти oт услoвий рельефа (при пoдъёме на 10 м давление пoнижается примернo на 1 мм рт.ст.).